TimeCDT,TemperatureF,Dew PointF,Humidity,Sea Level PressureIn,VisibilityMPH,Wind Direction,Wind SpeedMPH,Gust SpeedMPH,PrecipitationIn,Events,Conditions,WindDirDegrees,DateUTC
12:53 AM,46.9,32.0,56,29.96,10.0,South,3.5,-,N/A,,Clear,190,2012-10-11 05:53:00
1:53 AM,46.9,32.0,56,29.94,10.0,Calm,Calm,-,N/A,,Clear,0,2012-10-11 06:53:00
2:53 AM,46.0,32.0,58,29.93,10.0,South,4.6,-,N/A,,Clear,180,2012-10-11 07:53:00
3:53 AM,39.0,30.9,73,29.93,10.0,Calm,Calm,-,N/A,,Clear,0,2012-10-11 08:53:00
4:53 AM,39.0,32.0,76,29.93,10.0,ENE,3.5,-,N/A,,Clear,70,2012-10-11 09:53:00
5:53 AM,39.9,33.1,77,29.95,10.0,ENE,3.5,-,N/A,,Clear,60,2012-10-11 10:53:00
6:53 AM,41.0,32.0,70,30.01,10.0,Calm,Calm,-,N/A,,Clear,0,2012-10-11 11:53:00
7:53 AM,42.1,33.1,70,30.04,10.0,NNE,6.9,-,N/A,,Clear,20,2012-10-11 12:53:00
8:53 AM,45.0,33.1,63,30.06,10.0,NNE,8.1,-,N/A,,Clear,30,2012-10-11 13:53:00
9:53 AM,46.0,33.1,61,30.09,10.0,NNE,13.8,-,N/A,,Clear,30,2012-10-11 14:53:00
10:53 AM,50.0,33.1,52,30.13,10.0,NE,16.1,-,N/A,,Clear,50,2012-10-11 15:53:00
11:53 AM,48.0,32.0,54,30.15,10.0,NE,19.6,28.8,N/A,,Partly Cloudy,40,2012-10-11 16:53:00
12:53 PM,52.0,32.0,47,30.17,10.0,NE,18.4,-,N/A,,Clear,40,2012-10-11 17:53:00
1:53 PM,54.0,32.0,43,30.17,10.0,NE,20.7,29.9,N/A,,Clear,40,2012-10-11 18:53:00
2:40 PM,55.4,32.0,41,30.17,1.8,NNE,21.9,28.8,N/A,,Haze,30,2012-10-11 19:40:00
2:53 PM,55.4,32.0,41,30.17,10.0,NE,20.7,27.6,N/A,,Clear,40,2012-10-11 19:53:00
3:53 PM,54.0,30.0,40,30.20,10.0,NE,17.3,27.6,N/A,,Clear,50,2012-10-11 20:53:00
4:53 PM,53.6,28.4,38,30.20,10.0,NNE,15.0,26.5,N/A,,Clear,30,2012-10-11 21:53:00
5:53 PM,51.8,28.4,41,30.22,10.0,ENE,12.7,-,N/A,,Clear,60,2012-10-11 22:53:00
6:53 PM,48.0,27.0,44,30.26,10.0,ENE,9.2,-,N/A,,Clear,60,2012-10-11 23:53:00
7:53 PM,42.8,24.8,49,30.27,10.0,NE,8.1,-,N/A,,Clear,50,2012-10-12 00:53:00
8:53 PM,39.0,24.1,55,30.32,10.0,NE,5.8,-,N/A,,Clear,40,2012-10-12 01:53:00
9:53 PM,36.0,23.0,59,30.35,10.0,NE,6.9,-,N/A,,Clear,40,2012-10-12 02:53:00
10:53 PM,34.0,23.0,64,30.36,10.0,NE,6.9,-,N/A,,Clear,40,2012-10-12 03:53:00
11:53 PM,33.8,24.8,70,30.33,10.0,NE,6.9,-,N/A,,Clear,50,2012-10-12 04:53:00